sat.trackr.live / text

‹ back to catalog

HULIANWANG DIGUI-153

NORAD 67529 · 2026-013H

PAYLOAD ACTIVE UNKNOWN

§ Identity

Operator
Country
PRC
Launch date
2026-01-19
Launch site
WSC
Launch vehicle
Mass (kg)
RCS (m²)

External: N2YO · Heavens-Above · Gunter

§ Orbital elements

Epoch: 2026-09-20T13:52:53.152608Z

Period
108.33 min
Inclination
50.0064°
Eccentricity
0.0000773
Mean motion
13.29327891 rev/d
Perigee alt
1,148.7 km
Apogee alt
1,149.9 km
Semi-major
7,527.4 km
B*
6.5547e-5
RAAN
13.2085°
Arg perigee
107.0716°
Mean anomaly
253.0241°
Rev number
3,273

§ Raw data

HULIANWANG DIGUI-1531 67529U 26013H   26263.57839297 -.00000094  00000+0  65547-4 0  99942 67529  50.0064  13.2085 0000773 107.0716 253.0241 13.29327891 32731

JSON: /api/v1/satellites/67529 · /tle

For live sub-satellite position, see the globe view (requires WebGL).

§ Visibility from observer

Set your observer location to see the next 7 days of passes ≥ 10°. The values pass through the URL so the page stays shareable.

No JS? Fill the form by hand. The geolocation button needs JavaScript.